Weather History for K0J4 - October, 2011

Change the Weather History Date:

Tuesday, October 25, 2011

  Actual Average (KCEW) Record (KCEW)
Temperature  
Mean Temperature 64 °F -  
Max Temperature 82 °F 74 °F 88 °F (1949)
Min Temperature 46 °F 52 °F 30 °F (1999)
Degree Days  
Heating Degree Days 1    
Growing Degree Days 14 (Base 50)    
Moisture  
Dew Point 47 °F    
Average Humidity 61    
Maximum Humidity 86    
Minimum Humidity 26    
Precipitation  
Precipitation 0.00 in - - ()
Sea Level Pressure  
Sea Level Pressure 30.19 in    
Wind  
Wind Speed 1 mph (ESE)    
Max Wind Speed 8 mph    
Max Gust Speed -    
Visibility 10 miles    
Events      
Averages and records for this station are not official NWS values.
T = Trace of Precipitation, MM = Missing Value Source: NWS Daily Summary

Daily Weather History Graph

Daily Weather History Graph

Search for Another Location

Airport or City:

Trip Planner

Search our weather history database for the weather conditions in past years. The results will help you decide how hot, cold, wet, or windy it might be!

Date:

Astronomy

Oct. 25, 2011 Rise Set
Actual Time 6:54 AM CDT 6:03 PM CDT
Civil Twilight 6:30 AM CDT 6:27 PM CDT
Nautical Twilight 6:01 AM CDT 6:56 PM CDT
Astronomical Twilight 5:33 AM CDT 7:24 PM CDT
Moon 5:28 AM CDT (10/25) 5:04 PM CDT (10/25)
Length of Visible Light 11h 57m
Length of Day
11h 08m
Waning Crescent, 2% of the Moon is Illuminated
Oct 25
Waning Crescent
Oct 26
New
Nov 2
First Quarter
Nov 10
Full
Nov 18
Last Quarter

Hourly Weather History & Observations

Time (CDT) Temp. Dew Point Humidity Pressure Visibility Wind Dir Wind Speed Gust Speed Precip Events Conditions
12:58 AM 55.0 °F 48.9 °F 80% 30.19 in 10.0 mi Calm Calm - N/A   Clear
1:58 AM 52.0 °F 46.9 °F 83% 30.19 in 10.0 mi Calm Calm - N/A   Clear
2:58 AM 51.1 °F 46.9 °F 86% 30.19 in 9.0 mi Calm Calm - N/A   Clear
3:58 AM 50.0 °F 46.0 °F 86% 30.18 in 10.0 mi Calm Calm - N/A   Clear
4:58 AM 46.9 °F 43.0 °F 86% 30.19 in 10.0 mi Calm Calm - N/A   Clear
5:58 AM 46.0 °F 42.1 °F 86% 30.21 in 9.0 mi Calm Calm - N/A   Clear
6:58 AM 48.0 °F 44.1 °F 86% 30.23 in 10.0 mi Calm Calm - N/A   Clear
7:58 AM 55.0 °F 48.9 °F 80% 30.24 in 10.0 mi Calm Calm - N/A   Clear
8:58 AM 66.0 °F 51.1 °F 59% 30.25 in 10.0 mi ENE 4.6 mph - N/A   Clear
9:58 AM 70.0 °F 48.9 °F 47% 30.26 in 10.0 mi East 5.8 mph - N/A   Clear
10:58 AM 73.9 °F 50.0 °F 43% 30.26 in 10.0 mi East 8.1 mph - N/A   Clear
11:58 AM 79.0 °F 48.9 °F 35% 30.23 in 10.0 mi East 6.9 mph - N/A   Clear
12:58 PM 80.1 °F 48.0 °F 32% 30.20 in 10.0 mi Variable 4.6 mph - N/A   Clear
1:58 PM 80.1 °F 46.0 °F 30% 30.17 in 10.0 mi Variable 3.5 mph - N/A   Clear
2:58 PM 82.0 °F 46.0 °F 28% 30.15 in 10.0 mi Variable 3.5 mph - N/A   Clear
3:58 PM 81.0 °F 43.0 °F 26% 30.14 in 10.0 mi South 4.6 mph - N/A   Clear
4:58 PM 79.0 °F 45.0 °F 30% 30.14 in 10.0 mi SSE 4.6 mph - N/A   Clear
5:58 PM 71.1 °F 46.9 °F 42% 30.14 in 10.0 mi Calm Calm - N/A   Clear
6:58 PM 64.0 °F 48.9 °F 58% 30.14 in 10.0 mi Calm Calm - N/A   Clear
7:58 PM 60.1 °F 48.0 °F 64% 30.16 in 10.0 mi Calm Calm - N/A   Clear
8:58 PM 59.0 °F 46.9 °F 64% 30.16 in 10.0 mi Calm Calm - N/A   Clear
9:58 PM 55.9 °F 48.0 °F 75% 30.18 in 10.0 mi SSW 3.5 mph - N/A   Clear
10:58 PM 55.9 °F 48.9 °F 77% 30.18 in 10.0 mi Calm Calm - N/A   Clear
11:58 PM 57.0 °F 51.1 °F 81% 30.16 in 10.0 mi Calm Calm - N/A   Clear